GFSCGP_250_spd_090.txt.gz
Wind_Speed
59 55 54 59 62 59 56 54 53 62 77 71 61 50 52 49 43 47 46 42 33 28 22 19 16 16 16 17 17 13 13 17 17 17 17 21 21 14 14 11 14 12 12 14
61 55 59 63 67 65 62 57 52 58 75 70 66 55 48 50 44 49 47 44 41 33 27 24 18 16 18 20 20 19 16 18 19 20 24 17 18 18 14 10 16 14 16 15
68 66 66 65 66 68 65 60 61 62 72 64 62 56 53 49 45 46 49 48 46 40 30 28 24 20 18 22 22 21 21 19 21 23 26 23 18 18 17 16 15 19 20 21
73 75 78 79 70 71 67 67 67 69 74 66 58 46 51 53 48 46 52 49 48 45 35 30 31 25 22 21 23 22 23 21 24 25 31 26 19 18 15 20 21 21 23 23
80 80 83 84 79 85 68 77 70 74 74 75 60 41 47 53 51 49 56 50 46 45 40 34 31 32 26 24 25 23 24 24 26 27 32 26 17 18 21 23 25 27 27 25
70 75 81 81 81 87 79 83 76 73 74 76 63 53 43 50 56 54 62 50 48 47 43 39 35 35 31 29 28 28 27 26 29 28 29 25 17 19 21 21 28 29 29 29
63 61 61 65 68 77 81 88 82 77 74 70 70 61 48 51 56 64 59 50 52 49 45 43 40 37 35 34 33 32 32 30 32 31 28 26 20 18 18 17 21 27 31 30
54 49 48 50 54 64 71 75 75 72 72 68 70 57 56 57 58 67 56 55 52 52 51 45 41 39 38 38 36 35 36 35 35 34 32 27 21 23 25 26 29 26 31 37
51 47 39 42 45 57 63 67 72 73 71 68 66 57 59 63 58 58 59 58 57 56 54 48 41 39 40 40 38 39 39 38 39 38 39 24 23 27 24 26 38 35 30 32
52 44 38 38 42 50 58 63 68 73 67 64 62 55 57 63 57 59 64 63 62 59 56 52 44 40 40 41 42 40 40 40 43 39 26 25 23 22 27 27 38 40 39 35
53 42 38 35 37 49 54 59 58 62 63 59 58 56 62 64 60 60 64 65 64 60 58 54 46 42 41 45 43 42 40 41 37 33 29 28 31 32 41 38 31 36 46 42
50 43 38 33 38 45 51 54 56 60 56 57 55 52 61 64 63 61 62 65 66 63 59 53 47 45 47 45 44 44 39 44 42 34 32 35 36 46 51 49 40 35 37 44
48 37 36 34 36 43 48 52 55 55 55 51 51 52 60 60 61 59 60 63 67 65 60 52 48 48 50 49 46 41 44 46 30 25 27 35 50 46 58 51 41 36 37 39
48 38 31 35 37 41 45 47 47 47 45 49 46 55 58 55 56 55 56 60 64 63 61 56 51 50 47 40 38 43 47 35 29 25 41 47 48 55 54 47 42 33 36 36
40 35 30 35 40 36 37 39 40 42 40 46 45 45 50 54 53 51 52 54 57 58 59 57 53 39 28 33 27 35 38 41 49 47 55 52 52 55 42 37 40 34 33 33
35 31 31 37 40 37 36 24 34 36 34 44 38 40 46 50 50 49 50 51 47 48 50 53 48 40 16 25 32 35 36 43 52 58 36 37 39 42 41 41 40 34 31 30
31 27 30 35 32 33 25 18 30 30 34 33 31 39 40 44 48 46 45 47 44 46 44 44 41 37 24 30 42 46 50 48 34 36 42 35 33 40 44 40 33 34 33 30
28 25 30 31 33 25 16 7 13 19 32 36 35 34 37 36 36 36 40 40 37 31 31 39 32 32 27 26 40 48 52 52 51 42 45 39 40 42 46 30 29 32 34 32
26 23 28 32 35 33 34 34 14 32 33 34 41 39 37 37 38 36 38 35 32 32 34 35 32 32 33 26 36 63 52 61 54 55 48 49 45 47 37 29 32 27 31 31
25 26 29 34 39 42 49 43 40 35 37 40 42 41 36 38 37 32 33 40 50 40 36 39 41 40 32 36 48 65 47 49 45 46 46 48 44 43 33 37 44 34 25 30
24 29 35 39 40 33 41 49 45 41 43 44 46 46 45 47 42 41 43 45 48 49 46 43 44 53 54 45 43 40 44 52 55 57 50 53 49 38 38 27 33 27 22 26
25 27 28 36 38 38 41 42 43 38 44 49 45 52 50 52 48 50 51 51 51 51 52 45 38 47 39 38 56 58 61 69 70 65 63 62 55 52 52 38 30 26 25 25
23 26 36 39 43 40 33 27 33 37 40 48 55 53 53 53 48 53 58 55 60 60 55 44 48 57 55 50 50 59 61 66 71 71 65 56 52 53 57 53 45 27 28 32
26 27 33 36 33 36 33 25 30 37 43 43 47 50 48 51 37 53 52 49 55 63 64 61 63 54 51 63 56 58 66 64 62 61 60 58 58 56 55 58 49 39 39 38
28 27 23 22 27 32 30 30 33 31 37 38 30 33 21 23 31 40 44 50 57 70 73 67 68 62 60 60 58 62 62 57 53 58 66 66 65 60 58 56 54 43 43 38
27 25 23 23 23 26 30 29 32 36 36 29 36 34 25 25 28 35 38 49 58 67 73 75 70 66 66 63 54 58 57 58 65 68 70 75 71 70 68 60 58 56 45 36

GFSCGP_250_spd_096.txt.gz
Wind_Speed
50 49 50 49 47 47 49 50 51 50 49 50 46 45 44 44 45 47 46 43 39 34 29 31 22 17 15 12 15 16 14 10 6 6 8 10 13 10 8 7 14 17 16 16
53 54 54 53 54 53 56 58 59 60 56 59 54 46 44 43 49 46 47 48 45 40 34 34 29 21 19 15 14 18 17 15 12 10 9 9 14 12 11 9 8 18 21 21
57 57 55 57 56 57 59 64 67 69 70 67 59 51 48 48 47 44 43 52 50 46 41 37 31 27 22 18 17 17 20 17 16 13 13 11 8 5 9 8 8 16 19 25
57 59 57 57 59 61 61 70 73 75 73 66 64 48 53 46 51 47 43 47 54 51 46 41 35 31 25 22 19 19 17 20 18 17 15 14 12 7 11 16 14 11 20 23
62 60 61 62 64 63 66 73 76 70 67 58 56 49 54 52 51 50 48 47 54 56 51 46 40 35 30 28 23 19 18 22 20 20 19 16 16 14 14 18 20 19 16 24
63 63 63 63 63 66 70 71 68 62 59 54 49 46 52 58 54 52 51 51 51 58 55 49 44 39 35 32 28 23 23 22 20 21 22 20 20 21 19 17 19 20 18 15
67 68 67 67 69 70 72 68 56 53 50 46 46 48 44 57 55 55 56 53 49 50 56 53 49 44 41 36 33 29 25 23 23 24 23 22 23 24 28 20 20 17 19 17
70 73 71 72 72 71 72 64 48 44 36 38 43 39 43 56 62 59 57 54 50 45 48 52 52 48 45 41 38 33 30 27 26 25 24 25 24 25 26 24 19 22 19 16
70 73 77 77 77 75 72 60 44 37 30 34 39 34 48 54 65 60 56 55 53 48 50 58 57 53 50 45 41 36 35 33 30 26 25 26 25 27 22 19 21 22 18 13
71 72 76 81 79 79 72 57 44 36 26 27 36 37 46 54 64 60 60 58 56 53 54 51 57 57 51 48 44 39 39 39 32 29 27 27 28 29 23 23 20 24 24 23
71 73 77 81 81 82 70 52 44 33 24 25 29 33 46 55 59 64 63 60 58 58 58 52 53 56 51 50 48 44 43 42 34 31 31 28 31 29 25 28 25 17 15 23
71 73 76 79 80 81 67 50 43 31 24 25 22 36 47 54 58 64 62 61 59 60 63 54 53 49 48 49 49 49 46 42 33 30 28 28 33 32 28 24 28 18 22 29
73 73 75 78 82 74 65 49 42 31 22 23 21 39 45 54 58 63 65 66 63 62 64 58 56 53 53 52 53 53 47 42 33 34 30 30 30 29 27 26 26 30 30 37
74 74 77 79 77 67 56 46 39 29 23 18 29 40 45 50 56 63 66 66 65 66 63 60 58 57 55 51 50 50 46 46 41 33 24 18 19 27 26 33 35 38 40 46
74 75 78 80 74 62 51 43 33 28 22 19 25 35 38 48 51 58 63 63 65 63 62 60 59 58 55 50 45 50 53 49 44 39 38 38 44 31 28 31 34 35 41 46
77 77 80 74 68 56 44 38 29 25 21 18 27 25 36 41 51 54 60 64 63 59 59 59 16 58 45 44 46 51 54 54 53 45 36 39 37 30 28 23 33 31 39 37
79 79 76 65 60 48 40 33 25 20 18 21 23 26 33 39 50 56 58 59 60 63 61 60 59 45 21 53 47 48 45 49 54 51 46 41 59 42 35 37 33 28 37 24
84 78 65 58 52 42 33 28 24 17 16 18 21 25 18 21 32 38 42 55 60 61 62 60 55 47 51 61 47 35 48 56 55 53 48 51 56 57 41 37 38 30 34 28
83 72 57 51 45 35 26 22 27 22 20 20 19 18 29 28 27 40 46 53 59 61 61 63 57 55 50 54 59 49 48 60 65 53 43 48 58 57 50 47 43 40 41 33
74 61 51 45 39 24 16 22 27 28 20 14 15 14 17 26 29 38 41 52 57 58 60 64 66 73 61 60 56 63 54 48 48 35 37 40 50 44 49 44 44 42 43 40
60 51 46 43 34 16 27 32 33 32 25 28 26 21 18 21 34 39 43 47 56 60 59 63 65 70 73 68 58 61 60 53 43 38 29 31 40 45 52 50 46 42 42 44
51 43 39 36 30 12 40 39 38 32 22 26 34 34 36 37 36 33 35 46 52 59 61 62 63 64 63 60 59 57 52 52 47 43 37 31 31 34 39 43 39 45 45 44
46 40 33 29 25 23 51 43 43 38 27 36 36 42 41 42 39 34 32 37 52 56 59 59 59 64 62 58 56 64 57 59 50 48 45 48 51 35 44 43 45 45 48 37
40 34 30 25 19 28 52 53 46 48 46 46 45 45 46 48 44 35 41 44 47 56 55 58 50 57 61 61 62 64 63 59 48 43 43 48 53 52 51 51 44 47 47 45
32 29 25 25 25 24 42 59 53 51 50 51 48 45 47 47 46 45 38 42 44 48 51 54 52 45 59 63 63 65 65 56 40 44 42 43 47 51 55 55 55 53 51 56
27 24 24 22 22 16 17 53 55 55 52 51 49 49 44 41 43 37 38 38 43 45 52 55 56 53 58 62 67 68 63 57 48 47 46 50 57 55 60 64 63 61 60 50

GFSCGP_250_spd_099.txt.gz
Wind_Speed
42 46 45 48 48 45 44 44 43 44 45 47 46 42 41 42 41 40 44 44 46 45 41 33 30 23 20 15 19 16 15 14 12 8 6 6 6 6 3 5 14 18 17 18
47 49 51 52 52 50 48 47 49 48 49 51 51 48 50 51 47 45 47 49 46 50 45 41 36 32 24 21 18 19 19 18 18 16 12 8 7 5 5 3 6 15 21 21
51 54 54 55 55 56 53 53 52 51 55 55 59 59 59 54 53 54 52 49 49 50 50 46 42 38 30 27 22 20 21 20 19 20 18 14 9 8 7 5 4 6 18 24
53 56 57 58 58 59 58 58 58 59 61 61 68 67 59 52 54 53 54 52 50 49 53 50 48 44 38 30 26 26 22 21 22 21 22 18 15 10 10 10 8 9 9 17
58 58 60 62 63 63 61 61 62 65 65 70 64 66 45 50 48 49 55 57 54 52 52 53 53 50 42 36 33 30 24 22 21 22 24 21 19 13 12 12 13 13 10 15
60 63 63 65 65 65 64 62 64 66 68 69 59 56 41 41 44 50 60 61 60 59 52 54 57 52 48 43 38 35 31 28 28 26 25 24 22 18 17 16 14 13 12 9
65 67 63 68 69 70 67 65 66 68 71 63 48 43 30 39 47 53 59 66 65 63 59 51 53 53 51 47 43 39 38 32 31 29 26 27 23 21 20 20 14 15 18 19
68 75 70 71 72 73 72 67 70 71 70 56 42 33 29 40 51 50 61 66 64 63 57 50 51 53 55 51 47 43 42 37 34 33 30 27 25 22 21 24 19 18 23 25
70 74 76 76 77 76 73 69 70 71 65 49 37 27 30 43 48 51 61 66 69 59 55 54 51 54 57 55 52 48 45 41 39 37 33 29 25 23 21 22 21 23 25 27
72 73 78 80 80 77 72 73 70 70 59 48 35 25 33 42 46 51 54 72 65 63 61 57 56 53 57 58 54 51 50 45 41 40 36 29 27 24 22 25 25 25 25 24
72 75 78 81 80 77 77 78 79 67 49 41 31 24 24 34 40 58 51 58 74 67 65 61 62 53 52 56 56 54 51 48 43 41 40 30 25 24 27 28 26 30 28 27
76 76 78 78 78 71 73 77 80 67 48 38 30 26 41 45 47 56 69 67 71 68 64 63 63 56 52 50 54 54 52 48 44 40 36 32 28 28 31 32 32 28 25 27
78 80 78 75 74 76 71 74 72 63 51 38 25 17 24 14 15 53 66 66 69 67 64 63 62 57 49 44 48 50 51 48 45 41 33 31 26 30 30 29 27 26 20 29
78 79 78 73 74 77 73 74 67 59 43 36 27 22 3 7 42 62 64 66 66 66 61 57 58 56 50 45 38 36 39 39 39 38 35 30 25 21 23 19 26 34 28 30
79 76 76 75 75 76 74 72 62 47 41 33 24 29 24 23 59 59 59 63 66 58 44 44 61 55 52 50 41 35 27 19 22 22 27 25 26 27 26 31 31 37 34 24
79 77 77 79 78 75 75 70 55 41 38 33 25 48 40 65 73 73 56 60 61 59 54 41 55 65 55 50 39 30 25 23 20 6 25 25 27 49 49 48 39 40 35 26
79 78 80 80 81 78 75 58 47 40 32 36 32 47 55 42 47 50 50 57 63 69 80 47 41 61 54 42 38 35 23 34 44 47 46 48 50 35 47 50 46 40 33 28
81 82 81 80 83 78 64 42 40 39 35 35 30 37 43 35 41 42 48 52 64 71 74 70 76 65 53 44 40 55 34 45 51 45 72 59 50 61 50 51 55 42 32 36
83 85 83 82 82 72 46 19 43 43 28 18 22 29 23 19 21 33 40 49 55 68 74 74 75 65 56 58 56 66 66 76 72 70 73 69 67 66 67 54 54 41 35 36
87 86 82 82 77 59 37 25 41 39 17 17 20 22 29 26 25 15 21 36 48 54 66 66 65 68 63 61 60 58 59 60 57 66 70 71 75 59 44 43 52 56 58 49
86 82 78 72 61 49 32 29 27 21 24 17 18 22 31 37 29 31 36 42 41 49 57 64 66 71 68 74 64 64 61 60 67 57 58 71 69 52 42 39 53 53 45 47
81 77 69 53 45 38 23 27 23 29 32 27 21 9 18 31 34 40 40 39 42 47 49 52 61 69 71 72 75 73 76 77 78 70 63 58 51 44 56 57 42 72 53 57
76 68 55 46 40 36 32 28 35 39 39 39 34 29 29 35 33 36 37 46 44 41 44 44 52 61 66 69 73 75 74 78 69 63 59 58 49 50 53 52 47 49 51 57
66 57 45 40 35 35 31 28 46 41 41 45 40 34 44 42 43 37 41 38 38 37 34 42 48 52 61 67 71 72 74 75 67 60 59 60 52 58 56 49 47 49 47 47
54 46 38 32 29 27 18 32 54 45 46 45 37 38 43 40 43 44 45 43 41 40 34 36 39 43 50 59 65 74 78 80 78 73 61 61 56 62 61 53 49 54 49 44
42 36 29 27 24 21 17 20 59 53 54 53 49 46 42 49 49 53 51 50 45 37 41 37 39 44 45 52 56 66 73 74 76 71 67 62 56 60 59 49 52 61 54 53

GFSCGP_250_spd_102.txt.gz
Wind_Speed
37 37 36 38 40 42 42 44 45 46 45 43 40 39 39 41 37 42 41 36 36 37 41 42 37 34 28 24 19 17 20 19 16 13 9 6 3 4 4 7 14 12 14 15
41 39 39 41 45 47 48 46 48 50 50 47 46 42 46 45 47 46 49 47 44 43 43 44 43 39 35 30 24 21 19 23 23 20 16 12 9 5 3 4 7 17 18 17
43 43 45 45 47 48 52 54 54 54 53 52 52 43 50 53 56 56 54 52 50 53 47 47 44 45 40 36 32 26 23 20 25 26 22 17 14 10 6 3 4 3 12 21
47 46 45 49 52 53 55 57 58 60 58 52 61 53 50 58 62 60 56 52 52 55 52 55 46 49 45 44 38 32 30 25 23 26 26 23 19 16 12 9 4 1 4 7
51 51 47 48 54 55 58 60 63 64 61 58 57 65 62 62 59 53 45 48 49 56 58 58 49 55 52 47 43 38 35 31 25 26 28 26 23 19 18 12 10 4 3 7
52 54 52 52 56 58 59 61 64 64 62 60 58 60 58 55 48 35 34 40 48 55 60 62 54 57 55 52 47 44 39 36 30 27 27 27 25 22 20 18 14 10 5 6
56 58 55 55 56 59 60 63 65 65 64 65 70 70 58 47 35 26 30 39 43 58 66 67 55 57 56 55 53 48 44 42 36 33 29 27 24 23 23 21 18 10 10 10
59 62 63 63 58 57 64 68 69 67 64 64 70 69 56 37 28 28 34 45 44 62 63 65 50 54 55 56 55 50 48 46 41 37 31 28 25 24 24 23 21 22 20 15
60 61 68 66 66 62 66 70 71 69 67 65 65 66 43 27 24 25 24 30 30 43 52 53 50 44 49 50 56 54 50 48 45 40 35 33 29 26 25 25 22 24 22 18
62 63 68 70 68 68 69 68 70 71 73 68 67 54 37 24 13 21 22 15 19 31 43 45 45 58 55 56 59 58 53 51 47 44 40 36 32 28 27 29 28 27 25 25
65 66 67 69 68 69 73 72 71 71 77 71 67 56 30 17 19 2 13 21 19 16 10 35 50 50 56 55 51 54 55 55 51 46 43 41 38 34 32 32 32 30 31 29
69 69 66 67 70 70 73 71 69 70 73 71 63 52 28 12 2 16 24 30 17 36 35 61 54 50 54 59 51 49 55 53 51 47 43 45 44 41 42 40 38 36 35 36
71 70 66 68 75 70 71 70 72 71 68 67 58 47 21 1 26 24 39 34 35 29 42 53 46 57 57 56 47 49 44 50 51 48 45 44 46 45 49 47 42 38 32 30
71 69 68 71 73 78 73 72 72 75 71 70 50 35 4 11 45 40 29 50 41 47 43 37 48 55 59 54 47 45 34 34 35 23 30 38 40 46 47 46 39 31 25 21
71 69 71 74 76 76 75 73 75 76 71 67 51 22 24 31 50 37 30 47 44 61 45 42 54 54 58 53 45 39 26 18 21 29 24 34 31 33 32 24 30 21 24 31
75 75 75 76 78 76 73 76 77 74 70 52 37 8 17 38 43 35 30 33 30 44 41 49 58 54 46 38 46 43 36 33 33 18 3 19 24 25 27 62 38 35 36 38
79 78 80 79 80 76 78 75 74 70 55 37 28 19 39 43 31 34 43 23 25 48 47 44 51 47 40 54 51 51 47 43 35 28 26 30 27 11 33 70 53 67 48 41
82 83 84 81 79 79 80 74 73 63 46 13 27 22 36 41 45 49 46 36 32 47 35 50 54 50 46 55 67 55 54 48 41 40 54 56 53 46 43 81 75 42 33 40
85 85 85 81 81 82 80 73 65 38 31 24 39 43 42 30 42 31 35 26 29 27 37 62 60 58 49 51 48 66 63 61 50 43 47 55 64 64 74 61 59 40 38 49
87 88 85 83 83 81 76 69 47 32 32 40 35 34 30 30 31 40 21 17 20 27 45 70 71 65 62 65 55 68 68 68 62 55 56 54 63 76 55 56 45 58 55 61
88 85 84 80 77 76 72 64 40 23 40 44 42 40 20 41 36 35 32 38 36 32 38 64 79 61 64 58 52 65 67 68 63 60 60 63 64 67 67 66 56 69 63 46
88 84 82 78 75 72 66 54 44 22 24 36 51 33 36 40 33 29 28 30 40 43 37 48 76 86 78 74 63 59 64 71 70 65 68 73 76 80 84 77 65 69 70 54
86 82 77 72 71 66 56 35 39 33 27 28 40 27 43 40 33 19 27 43 43 47 42 42 58 79 79 89 90 84 73 72 74 77 79 77 79 80 89 80 70 79 77 60
81 77 73 68 59 53 46 43 42 36 31 38 39 31 54 47 35 34 34 38 56 49 50 48 48 63 82 86 89 90 82 74 78 85 87 87 88 86 88 82 79 84 81 80
70 67 59 54 45 41 37 35 31 24 31 44 46 43 59 49 40 41 36 45 52 61 59 49 47 58 62 72 80 86 86 80 82 82 89 90 89 83 83 81 77 65 73 79
51 47 44 40 34 29 25 20 18 23 24 48 52 54 56 55 52 49 47 50 50 61 63 52 40 44 53 62 68 76 79 83 81 87 87 88 88 83 78 77 73 71 68 81

GFSCGP_250_spd_108.txt.gz
Wind_Speed
27 28 28 28 28 31 31 31 33 37 37 32 35 37 39 36 32 31 27 25 21 24 28 31 32 31 37 36 31 28 25 20 17 13 8 5 4 4 1 4 8 7 9 12
28 28 31 33 33 34 34 34 37 38 38 37 34 40 41 40 39 39 38 35 29 28 31 33 37 38 35 41 37 34 30 26 23 19 15 10 5 1 3 2 6 11 11 11
31 30 32 35 37 37 37 36 37 37 38 40 36 36 38 40 43 48 47 47 44 43 37 38 41 45 41 40 45 40 36 31 28 25 21 16 11 7 3 2 1 6 11 11
34 33 35 37 40 39 41 42 45 43 41 39 42 37 45 40 41 49 55 60 60 56 51 48 46 51 47 44 47 44 41 36 31 29 26 23 17 14 10 6 5 6 4 9
37 37 38 40 42 42 43 44 48 49 47 46 51 42 44 45 46 54 56 56 55 52 49 50 50 54 56 51 45 49 43 37 33 29 27 27 24 20 16 13 9 6 7 6
42 41 41 45 47 48 46 48 51 52 51 52 52 47 49 49 49 56 59 40 42 47 47 45 51 55 58 56 50 46 46 42 37 33 30 29 27 23 21 18 15 11 9 7
50 49 48 50 52 53 50 47 48 51 51 51 55 51 52 54 57 58 50 41 33 34 36 32 39 51 62 60 57 51 53 49 44 38 34 31 28 26 23 22 20 18 14 9
51 54 52 54 54 55 54 52 53 49 49 47 55 56 58 54 58 61 51 34 28 24 29 28 37 57 66 62 61 54 58 60 51 43 40 35 30 28 26 25 24 22 19 16
50 58 60 58 61 59 57 58 57 54 55 52 53 54 56 51 55 57 43 26 17 16 18 28 42 61 63 64 62 53 56 59 54 48 42 38 33 31 29 27 25 24 23 23
52 56 65 66 65 68 63 62 62 61 57 51 51 55 56 53 55 53 37 24 20 27 25 30 47 60 62 64 61 47 54 56 52 47 41 36 32 30 29 27 27 26 26 25
56 59 64 70 70 67 70 68 67 64 60 53 47 52 50 50 55 50 30 18 30 29 36 38 44 46 54 55 49 38 34 41 43 42 47 45 39 32 31 29 29 27 23 21
63 64 65 70 74 68 69 69 68 66 60 60 55 50 45 45 51 46 26 23 36 39 39 45 44 45 50 54 46 37 31 29 37 39 39 39 45 42 37 34 32 29 30 27
69 69 71 74 78 73 72 70 68 65 57 57 56 53 46 44 48 42 28 22 38 44 52 51 49 48 45 43 45 39 35 42 46 45 39 27 34 43 38 39 40 40 34 33
73 74 76 77 76 77 74 71 72 66 62 59 57 51 52 43 40 38 29 34 48 53 51 49 48 46 41 41 42 39 43 46 52 43 47 45 31 38 25 29 41 44 39 39
80 79 78 78 80 76 72 73 74 67 65 60 56 53 52 44 37 35 29 32 50 44 49 48 42 43 45 47 42 46 27 29 39 43 43 48 49 38 44 39 36 40 40 31
86 80 81 78 79 76 73 75 72 69 68 63 58 56 50 43 37 32 35 48 44 41 40 48 44 50 53 61 44 35 47 54 56 47 47 43 48 34 51 61 52 44 40 37
89 85 82 76 81 77 76 75 72 70 69 66 61 57 49 41 35 29 41 55 51 56 45 44 41 61 58 58 66 65 48 42 48 55 54 51 54 47 38 58 49 47 47 46
89 89 84 80 83 78 78 77 74 72 71 66 66 59 47 39 30 28 47 61 61 65 52 47 46 57 53 58 50 50 53 53 53 59 61 58 62 62 46 45 52 57 53 49
89 88 87 85 86 85 81 80 76 74 75 68 65 56 46 36 25 35 54 66 63 66 61 56 46 60 54 52 51 56 54 53 58 61 60 60 66 68 63 51 61 63 59 55
90 89 89 86 86 89 87 82 79 76 73 63 58 55 43 32 26 43 41 64 73 73 66 61 57 48 53 53 53 59 50 63 60 65 69 67 64 75 77 65 62 61 55 52
93 93 92 93 93 92 88 83 77 71 67 61 54 51 45 37 21 43 49 52 77 82 72 73 65 64 54 55 55 55 55 60 60 64 70 71 71 73 76 71 66 65 58 57
100 99 96 94 91 86 81 75 71 67 62 55 51 47 45 39 26 33 50 53 60 74 74 66 74 70 59 59 61 61 56 62 59 64 69 70 71 74 73 69 69 62 59 61
93 92 86 83 80 76 72 70 67 63 59 53 45 40 39 39 26 33 55 56 67 67 72 72 70 71 65 62 61 60 61 60 62 64 71 67 70 73 76 74 71 67 60 59
78 76 75 75 74 69 65 63 61 58 54 46 40 34 42 38 38 29 36 61 67 78 78 76 73 72 71 70 71 63 54 54 60 63 66 65 70 73 78 79 71 66 61 62
68 65 63 63 63 60 55 52 49 47 44 40 36 32 37 46 42 36 31 38 49 62 71 75 76 66 66 63 57 62 65 63 62 69 74 68 71 77 76 75 69 67 70 72
53 52 52 51 49 46 43 37 36 35 34 33 33 36 40 40 48 38 34 40 42 56 65 67 69 70 66 63 55 51 55 59 62 71 78 79 78 77 78 79 83 79 76 79

GFSCGP_250_spd_111.txt.gz
Wind_Speed
21 22 24 25 29 31 33 35 37 38 43 47 46 47 40 42 39 34 28 21 21 23 18 39 31 28 31 30 35 32 27 23 19 17 16 13 10 9 8 8 10 10 13 12
24 24 26 28 29 32 34 36 38 40 44 46 45 46 39 43 44 41 37 28 25 29 29 30 33 35 33 33 37 37 33 29 26 23 20 16 11 10 13 10 9 12 10 11
27 27 27 30 30 34 33 37 38 39 42 47 47 45 40 41 48 50 48 40 32 32 35 39 40 39 43 39 39 42 40 33 31 29 25 22 16 12 11 12 11 10 12 12
32 32 31 30 32 35 37 37 40 41 43 49 45 45 43 44 47 54 53 48 44 44 45 46 47 49 46 47 44 47 46 40 36 34 31 27 23 19 14 12 13 11 11 12
37 36 35 32 34 36 36 39 42 47 49 52 51 48 45 45 47 55 58 52 56 58 52 38 46 55 55 53 49 52 54 51 45 40 37 33 28 24 20 18 15 16 15 10
40 41 41 38 37 38 39 39 44 48 52 55 54 50 49 46 46 49 52 56 63 65 57 36 34 55 61 62 56 52 58 57 52 48 44 40 35 29 25 21 19 17 16 13
43 45 44 41 41 43 42 43 47 51 52 55 56 53 52 50 47 46 48 56 58 60 45 35 31 41 67 73 67 63 63 63 57 53 48 46 41 35 31 27 23 21 18 16
49 50 51 48 46 48 48 48 50 52 53 55 58 54 54 54 52 51 51 54 60 58 41 33 34 31 59 75 77 70 65 67 62 57 52 48 41 35 30 27 26 24 23 20
44 54 59 56 51 49 49 50 54 57 58 55 57 55 56 57 55 52 51 53 56 54 39 33 28 30 53 74 79 72 66 68 67 60 54 49 43 37 31 28 27 25 25 22
48 50 57 65 62 55 54 53 60 63 60 59 57 57 58 58 60 57 54 53 53 48 38 32 31 25 41 65 74 68 65 66 70 64 55 48 44 35 30 25 24 23 24 22
51 53 57 64 64 65 66 62 62 65 65 63 58 55 55 56 55 56 56 52 51 43 36 32 30 37 41 59 67 63 57 63 68 61 54 45 45 42 33 30 25 20 18 21
56 58 59 63 68 66 69 71 71 68 68 67 62 56 56 56 54 55 52 50 46 38 33 34 36 44 48 59 67 68 64 63 67 65 55 50 42 35 29 27 22 20 20 19
60 62 61 65 71 71 72 75 74 72 71 67 63 58 56 54 55 56 50 48 43 32 29 38 40 50 51 57 66 70 63 66 67 67 58 47 38 41 36 34 32 29 27 26
65 65 66 68 72 78 81 80 78 77 72 68 65 60 57 55 53 53 52 43 39 29 25 30 36 43 54 57 61 63 63 64 61 57 49 42 33 36 43 40 39 40 31 25
73 72 72 74 78 79 79 80 81 81 76 71 65 63 61 57 54 52 50 40 32 29 29 33 35 46 49 53 48 44 52 54 56 47 42 39 38 42 36 40 33 34 42 41
82 82 82 80 81 81 79 83 81 79 77 74 70 66 61 57 55 54 48 39 31 29 30 35 41 46 49 51 53 53 52 51 45 44 42 38 33 32 38 48 45 46 40 43
86 86 86 83 85 83 80 84 81 79 77 74 71 66 61 60 57 54 48 39 30 36 41 44 46 49 55 55 53 48 48 46 45 39 40 36 45 47 50 50 45 33 40 51
87 89 90 87 86 83 84 85 84 80 78 75 72 69 63 59 57 52 45 39 27 45 52 52 51 55 61 60 60 55 51 49 45 46 43 48 53 51 56 50 56 57 53 57
90 90 91 92 90 88 88 87 86 83 81 79 74 70 64 56 52 49 40 38 25 52 56 55 62 63 64 62 60 58 55 52 48 52 48 53 47 49 50 48 60 63 59 54
93 94 94 94 93 91 90 88 86 85 81 75 70 66 59 50 46 45 38 34 28 55 60 60 60 64 67 67 68 65 64 62 60 56 53 52 50 56 57 55 63 66 67 60
97 99 99 100 99 95 93 89 86 82 74 67 62 57 53 45 42 40 35 35 35 52 69 66 64 65 73 76 73 71 69 71 69 61 60 61 55 55 58 65 65 62 68 65
101 101 102 99 96 92 84 79 75 69 66 58 56 54 48 42 40 37 33 37 36 47 60 71 69 73 69 76 77 74 67 69 72 65 67 65 60 62 61 63 67 70 67 76
103 103 100 90 82 79 76 73 69 63 59 57 55 51 46 42 41 36 32 39 42 44 50 65 75 77 74 74 74 76 78 76 80 72 64 66 61 63 65 68 68 67 70 81
98 93 86 83 78 73 69 65 62 57 55 54 51 46 42 39 38 32 34 39 43 47 54 59 67 75 77 82 77 77 77 75 84 77 75 64 67 71 65 68 73 76 73 83
89 85 80 77 70 64 58 53 51 48 49 51 44 40 34 34 36 34 35 38 41 43 51 61 66 69 77 82 82 83 79 86 84 78 72 75 74 66 72 73 75 76 88 85
82 78 70 64 59 57 53 48 42 44 45 43 37 35 30 33 44 35 39 41 41 40 45 53 63 72 71 74 75 76 78 79 81 82 80 83 76 71 62 64 74 77 81 88

GFSCGP_250_spd_117.txt.gz
Wind_Speed
30 30 27 27 25 24 22 22 22 22 25 25 25 27 31 35 36 36 33 33 27 24 25 24 24 18 21 29 25 17 26 27 26 24 22 23 21 19 17 17 18 21 21 22
33 34 33 32 30 29 28 25 25 26 27 30 29 32 34 36 37 36 36 34 35 29 27 26 23 25 22 25 25 23 29 30 31 30 26 25 24 22 21 19 17 17 21 23
35 38 38 36 34 32 32 31 29 29 29 32 33 33 36 37 40 41 41 39 38 37 29 28 24 21 29 32 35 38 37 39 37 37 34 28 26 24 24 23 20 16 19 21
36 39 41 40 37 35 34 34 33 32 31 33 35 35 35 38 41 44 44 42 42 41 38 34 31 24 28 40 41 41 44 44 48 43 43 35 29 25 22 25 23 21 23 22
38 40 41 41 41 38 38 37 36 35 35 37 36 38 39 41 41 45 47 46 44 45 41 39 38 35 35 38 42 44 48 55 55 52 50 43 37 31 26 26 25 24 23 25
40 42 44 44 43 42 41 40 39 37 39 41 42 42 44 44 45 47 49 49 49 49 46 43 42 39 38 41 40 45 37 50 59 59 56 51 44 38 32 29 27 27 28 27
43 43 44 45 45 44 42 41 40 40 40 42 43 44 46 49 50 52 52 50 50 51 50 50 49 44 42 41 39 40 33 40 62 65 60 59 53 43 36 32 29 30 28 28
43 43 45 47 48 46 44 43 43 43 43 46 47 47 50 52 53 55 56 54 53 52 50 53 55 53 46 46 38 38 31 35 59 70 66 62 57 48 41 35 34 31 32 28
45 45 46 47 48 47 45 45 45 46 46 48 50 52 54 55 58 60 59 58 55 52 51 52 53 55 54 51 39 35 27 34 52 73 66 62 62 54 49 43 37 35 33 33
43 45 47 47 48 48 47 47 48 48 49 49 50 52 57 57 61 63 63 62 58 53 51 50 51 52 52 54 43 28 28 31 46 73 70 63 66 61 56 49 43 39 36 34
40 42 44 46 47 51 51 52 53 54 54 53 51 56 63 61 64 65 66 65 62 57 54 53 50 52 51 52 46 29 27 25 41 68 73 66 70 67 59 55 48 44 38 37
42 42 43 46 48 52 56 57 59 59 57 59 58 62 64 66 66 64 64 64 63 61 59 55 50 51 51 51 47 34 25 23 37 55 70 70 70 70 64 59 55 47 43 39
46 47 49 50 54 55 57 62 66 65 65 66 65 66 67 66 65 64 64 65 65 64 60 56 51 51 51 51 46 37 25 24 31 45 70 68 67 72 68 63 57 50 46 44
53 54 56 58 60 61 64 66 69 69 70 69 72 68 71 66 65 64 63 63 64 65 63 58 51 48 49 49 43 36 25 20 28 42 71 66 61 68 70 64 60 53 48 47
61 62 62 63 65 65 66 69 72 72 73 72 71 70 69 67 67 66 64 65 64 64 64 59 52 46 47 46 39 34 24 20 24 41 66 69 62 64 71 69 62 54 51 51
66 66 66 65 68 67 67 71 71 73 74 74 72 70 70 71 68 67 65 65 65 63 61 58 49 44 45 42 37 30 20 20 24 38 62 71 67 62 68 65 59 54 52 51
71 69 67 65 68 69 69 73 73 74 74 74 75 75 74 73 72 70 66 65 65 62 56 54 47 43 42 40 37 27 20 21 25 36 53 68 66 64 62 64 59 54 55 56
73 74 73 69 71 70 73 76 78 78 80 79 79 77 76 75 78 76 68 67 63 61 53 47 43 41 40 38 37 26 21 23 28 37 48 63 66 63 60 61 60 60 60 58
77 76 77 77 77 77 80 82 83 83 85 85 85 83 81 80 81 80 70 66 61 56 49 43 40 40 36 36 33 28 24 26 31 34 47 59 62 61 58 59 64 67 65 64
81 81 82 83 84 83 85 85 88 89 88 89 89 89 88 84 81 75 66 59 53 51 45 38 34 37 36 36 35 33 28 24 26 36 47 56 62 62 63 65 68 69 71 70
87 86 87 88 89 90 91 91 92 92 92 93 90 89 82 77 69 60 55 50 50 46 40 35 31 35 35 34 36 35 32 29 28 30 35 47 58 66 70 72 69 71 71 69
91 90 91 93 94 94 95 95 95 92 91 85 76 68 65 64 58 50 51 46 43 43 36 32 31 33 36 36 36 36 34 33 29 29 33 38 47 60 66 68 68 67 61 55
97 96 96 96 95 95 95 95 90 80 74 71 68 67 62 62 56 50 45 41 40 38 35 30 33 33 37 38 41 38 36 34 37 36 37 41 44 51 51 56 63 59 55 61
97 92 87 84 85 87 84 80 74 71 68 68 64 63 62 58 53 44 37 36 35 34 34 32 34 36 42 44 49 50 47 46 43 40 41 43 45 47 49 49 54 58 62 61
89 86 84 78 79 77 76 72 68 67 67 65 63 62 55 49 42 38 32 29 33 33 33 35 38 41 46 49 50 52 53 50 48 46 46 45 51 50 53 54 58 56 56 56
88 81 76 72 74 73 73 71 67 67 68 64 62 54 47 40 34 31 25 29 35 36 34 38 45 41 45 48 49 46 56 57 52 50 49 49 50 53 56 62 63 60 61 61

GFSCGP_250_spd_120.txt.gz
Wind_Speed
27 28 28 27 27 27 25 24 24 23 20 20 21 20 22 23 24 28 31 33 31 24 21 20 21 24 17 17 22 24 25 21 17 21 22 23 20 18 16 11 11 11 21 21
30 30 30 29 30 31 30 29 29 27 25 23 24 24 22 24 24 26 29 32 34 31 27 23 20 21 26 19 18 21 26 25 23 21 26 27 26 23 20 17 15 17 19 25
33 33 33 32 34 35 34 33 32 31 29 28 28 29 27 26 25 26 27 31 36 35 33 30 25 22 21 25 22 23 23 26 29 21 36 31 28 29 26 25 20 18 19 21
35 35 34 34 36 37 37 36 34 34 32 31 32 32 30 29 29 29 30 31 35 37 35 34 32 29 26 23 24 28 31 33 38 40 44 32 33 34 31 29 28 24 21 24
37 36 36 35 36 39 40 39 37 36 35 35 32 36 33 33 33 33 33 34 37 40 39 37 35 33 31 30 29 29 33 34 35 39 49 48 40 37 35 32 34 32 27 25
39 38 38 37 38 39 40 41 40 38 38 37 37 38 38 38 36 36 37 36 37 41 43 42 39 37 36 34 33 34 37 36 36 42 49 59 54 48 42 39 38 37 33 31
41 39 40 39 40 40 40 41 40 39 38 39 39 40 41 40 40 40 39 40 42 45 47 46 43 42 39 38 35 34 36 39 39 40 47 63 62 52 47 44 39 39 36 34
44 43 41 40 40 39 39 39 39 40 40 42 41 43 41 43 43 43 43 44 46 49 50 49 46 43 44 44 40 36 40 41 38 32 39 58 63 54 52 47 42 41 40 37
43 39 38 37 35 36 36 38 39 40 40 41 41 43 45 47 46 48 49 51 52 54 53 51 50 49 49 49 44 40 37 38 37 27 37 55 62 59 57 53 47 43 42 40
41 38 35 31 30 30 33 34 37 36 40 39 42 44 50 46 48 53 54 55 55 55 54 52 51 51 50 52 51 45 39 35 34 31 36 53 61 61 62 59 52 49 46 44
39 38 31 35 33 35 36 38 40 40 40 42 45 49 50 53 54 58 58 58 57 56 54 52 52 52 51 52 52 50 41 33 32 30 34 47 63 66 67 63 58 55 50 48
38 38 40 39 40 42 44 46 47 47 49 49 52 58 57 60 60 62 65 63 62 59 56 55 54 55 55 53 52 50 44 35 30 31 35 45 63 70 69 66 62 58 54 50
39 42 46 48 49 49 51 54 57 56 56 58 58 61 62 61 60 62 64 63 62 60 58 57 56 55 57 54 51 49 45 37 32 31 36 45 59 69 73 74 68 61 56 53
47 49 51 55 55 55 55 57 60 60 61 61 63 62 64 64 64 65 65 64 64 62 60 58 57 56 55 53 52 48 42 36 34 32 37 47 55 74 79 79 72 64 59 54
55 56 56 58 59 59 60 62 63 63 63 63 65 64 65 65 65 67 67 68 67 63 63 58 58 55 53 51 51 47 39 36 33 34 38 47 56 76 81 81 75 68 62 59
62 62 61 61 63 62 62 64 67 67 68 67 67 68 66 68 68 69 68 69 69 67 64 62 60 55 53 49 50 44 36 34 31 34 40 48 58 74 81 81 80 73 65 61
66 66 65 64 67 66 67 67 69 69 71 71 72 72 71 71 74 74 72 72 71 68 66 64 59 56 51 47 47 42 34 31 29 33 39 50 56 69 79 82 83 76 70 64
72 72 70 69 70 69 69 71 73 73 76 76 77 77 77 78 80 81 77 75 76 71 64 60 56 52 47 44 45 41 33 26 26 30 38 50 54 71 79 76 80 81 76 69
75 76 75 75 76 76 77 75 77 78 80 80 82 83 83 83 85 85 81 81 77 67 61 54 49 46 42 40 41 38 33 24 25 30 37 45 52 69 77 74 72 81 78 71
79 79 79 80 79 80 81 79 81 83 84 83 87 88 88 89 89 86 82 76 66 55 52 44 39 39 35 35 36 36 33 24 22 25 34 43 51 70 77 73 72 77 80 76
83 84 83 84 85 87 84 86 86 87 88 88 89 89 89 86 81 76 68 63 61 53 48 39 36 34 32 35 35 36 32 27 24 23 28 40 50 70 75 73 71 69 73 75
89 88 89 89 91 92 89 91 90 90 90 87 83 79 74 71 67 61 56 56 58 52 46 37 34 30 33 34 35 34 34 29 28 28 27 34 45 65 70 74 73 72 69 69
94 93 94 93 94 91 92 90 89 85 81 79 73 71 64 63 62 59 54 54 54 48 42 33 29 27 33 34 35 34 34 32 32 31 29 31 43 52 67 72 74 72 70 69
94 94 93 94 94 95 91 87 83 79 74 71 68 64 60 60 59 57 55 54 45 36 34 27 26 30 36 36 31 28 37 36 35 36 33 31 33 41 45 64 68 68 69 68
99 96 96 93 92 86 83 82 77 73 71 67 64 61 61 60 56 52 51 42 36 29 27 25 28 35 42 44 45 38 37 39 37 38 37 33 33 32 36 42 53 60 62 65
96 94 89 83 83 80 77 75 70 68 65 63 62 62 59 55 52 46 40 34 31 30 26 21 33 46 44 44 50 50 50 45 45 42 42 40 39 39 36 38 41 44 49 48

GFSCGP_250_spd_126.txt.gz
Wind_Speed
25 27 27 27 27 26 26 26 27 29 28 28 27 25 25 25 24 22 22 22 20 19 19 19 20 21 20 17 12 11 6 11 16 17 17 18 17 21 23 24 26 28 33 34
30 30 29 29 28 27 28 28 27 29 30 31 30 28 27 27 26 25 25 23 23 22 22 19 19 21 22 20 16 12 13 12 13 16 18 22 25 25 24 26 29 29 29 31
33 32 33 31 28 28 28 28 28 28 32 33 33 30 29 30 27 25 28 26 24 24 22 21 20 19 23 23 19 15 14 14 17 16 17 21 26 29 29 30 31 29 26 25
35 35 35 33 30 28 29 29 31 32 32 32 35 35 29 29 28 26 28 29 27 26 24 24 22 21 24 25 22 20 17 17 17 20 21 22 28 26 27 26 31 33 30 27
39 38 36 33 32 31 31 32 33 33 35 35 35 39 34 29 29 30 29 29 29 27 28 26 26 26 25 30 27 23 21 22 21 19 21 27 29 34 31 29 31 35 30 30
42 40 37 38 38 35 32 33 33 33 34 35 34 40 36 30 33 29 25 29 29 28 31 29 29 31 34 33 32 29 26 23 24 27 26 26 28 31 35 40 35 34 34 32
45 43 41 43 38 36 34 34 33 33 32 37 33 35 39 33 37 33 27 25 28 31 32 33 36 37 37 38 36 35 33 30 30 29 31 30 30 31 35 37 43 45 38 31
47 47 42 47 38 34 33 35 31 31 30 34 31 31 32 31 33 37 33 30 32 33 33 38 40 42 41 40 39 38 38 37 35 35 35 35 33 32 36 37 42 49 43 35
51 50 45 39 39 36 28 33 30 29 27 26 30 33 30 27 32 38 40 40 41 44 43 42 44 44 46 44 42 43 43 42 41 40 39 39 40 36 35 39 39 45 52 54
53 51 44 31 41 31 33 30 30 31 29 29 33 38 38 29 33 38 44 48 47 48 48 48 48 47 46 48 48 47 48 47 48 47 44 42 43 40 37 38 40 45 55 58
51 44 45 28 34 35 31 33 34 35 34 35 36 46 43 41 42 45 48 49 49 49 50 50 50 49 49 50 51 52 53 53 52 51 49 47 44 42 41 39 39 41 56 61
47 43 39 35 32 33 35 33 35 36 39 40 44 48 53 48 48 49 51 55 51 53 54 53 53 54 55 54 54 53 56 55 56 54 54 52 46 44 42 39 41 39 50 68
47 40 40 42 45 37 32 42 45 44 45 47 48 51 55 53 51 51 53 57 57 58 60 59 58 58 59 61 60 57 58 58 58 56 55 55 48 44 44 41 41 37 44 66
45 46 46 48 51 47 45 42 46 50 50 52 54 54 57 58 56 60 60 58 58 59 60 60 63 64 63 65 65 62 62 61 59 58 56 52 46 39 40 42 42 37 46 62
51 50 51 50 52 54 50 48 49 51 51 53 56 58 61 60 58 61 63 63 64 66 68 66 67 66 66 66 67 65 63 61 60 57 54 52 47 39 35 42 43 38 43 62
56 54 53 53 54 53 54 55 57 55 56 58 59 61 64 59 62 65 65 67 68 71 71 72 73 74 73 71 69 64 61 58 57 57 54 49 43 38 35 39 43 39 43 62
53 59 56 54 57 56 55 60 59 61 64 65 66 66 70 68 69 68 68 69 72 73 74 77 77 77 77 75 71 65 60 56 55 52 49 45 42 35 36 38 40 41 44 59
61 57 58 59 61 60 64 65 64 64 67 70 70 71 75 71 75 76 72 74 78 77 78 79 78 76 75 72 67 63 56 54 53 49 45 40 37 40 37 35 42 41 45 54
64 63 63 64 65 65 69 71 67 69 72 74 73 76 78 79 79 83 82 83 83 81 79 75 73 71 69 66 62 56 52 49 48 43 39 38 38 41 42 37 39 38 44 49
68 67 69 71 71 72 75 79 72 74 76 78 77 81 83 84 85 90 91 88 83 81 73 71 69 66 64 60 55 48 45 45 43 39 36 36 40 38 39 40 40 36 46 52
74 72 74 77 77 80 82 83 81 83 83 84 85 87 88 90 91 92 90 85 82 80 73 71 66 62 58 53 43 43 40 41 37 35 32 35 39 41 42 41 45 30 39 47
81 81 80 81 83 82 85 86 87 89 87 88 88 91 93 94 87 86 85 80 75 69 68 64 61 56 50 44 34 36 36 37 36 36 33 34 38 39 44 43 43 38 36 35
84 88 87 91 90 91 91 93 96 94 93 92 94 93 89 82 76 74 73 63 58 58 59 58 55 50 41 35 34 35 33 36 34 36 35 33 34 38 37 37 40 39 30 38
92 94 93 93 92 99 100 100 100 98 99 93 89 83 77 70 69 66 67 55 55 56 56 52 50 43 38 35 39 36 33 38 39 40 40 32 30 37 33 35 35 37 42 38
96 101 98 98 99 101 99 97 95 95 94 86 81 77 72 69 68 63 70 66 59 60 57 52 48 43 38 35 36 34 34 43 41 43 40 35 28 31 32 32 33 31 33 37
98 101 100 97 96 95 93 91 91 88 84 83 78 73 71 71 72 70 66 64 64 60 55 49 45 36 37 40 38 33 36 47 44 46 43 41 32 33 35 36 33 33 27 21